Total_Precipitation_Accumulation
0.00 0.00 0.00 0.00 0.00 0.00 0.00 0.07 0.16 0.27 0.60 1.37 1.57 1.05 0.75 0.17 0.13 0.21 0.21 0.01 0.00 0.00 0.00 0.00 0.00 0.00 0.00 0.00 0.00 0.00 0.00 0.03 0.01 0.01 0.04 0.05 0.08 0.02 0.04 0.10 0.08 0.10 0.07 0.06
0.00 0.00 0.00 0.00 0.00 0.01 0.05 0.08 0.07 0.05 0.23 0.40 1.12 1.01 0.96 0.44 0.11 0.03 0.09 0.10 0.02 0.00 0.00 0.00 0.00 0.00 0.00 0.00 0.00 0.00 0.03 0.06 0.07 0.02 0.04 0.04 0.03 0.04 0.04 0.11 0.10 0.06 0.10 0.07
0.00 0.00 0.00 0.00 0.00 0.04 0.10 0.05 0.03 0.02 0.04 0.02 0.22 0.94 0.85 0.49 0.24 0.02 0.02 0.18 0.05 0.00 0.00 0.00 0.00 0.00 0.00 0.00 0.00 0.00 0.03 0.06 0.10 0.07 0.03 0.08 0.17 0.17 0.14 0.12 0.04 0.07 0.06 0.09
0.00 0.00 0.00 0.00 0.00 0.01 0.07 0.03 0.02 0.04 0.04 0.05 0.13 0.53 0.84 0.58 0.31 0.07 0.02 0.03 0.03 0.00 0.00 0.00 0.00 0.00 0.00 0.00 0.00 0.00 0.01 0.07 0.07 0.05 0.12 0.21 0.12 0.05 0.12 0.17 0.14 0.07 0.04 0.05
0.00 0.00 0.00 0.00 0.00 0.00 0.01 0.04 0.07 0.04 0.03 0.04 0.11 0.25 0.44 0.74 0.36 0.07 0.03 0.00 0.03 0.00 0.01 0.00 0.00 0.00 0.00 0.00 0.00 0.00 0.00 0.13 0.10 0.16 0.31 0.10 0.05 0.06 0.07 0.12 0.11 0.07 0.07 0.01
0.00 0.00 0.00 0.00 0.00 0.00 0.00 0.02 0.06 0.06 0.06 0.04 0.07 0.17 0.22 0.39 0.27 0.08 0.11 0.02 0.01 0.01 0.02 0.02 0.00 0.00 0.00 0.00 0.00 0.00 0.00 0.04 0.09 0.16 0.11 0.10 0.10 0.10 0.24 0.23 0.13 0.07 0.02 0.00
0.00 0.00 0.00 0.00 0.02 0.04 0.00 0.01 0.06 0.07 0.04 0.01 0.01 0.04 0.12 0.05 0.14 0.09 0.09 0.04 0.01 0.01 0.02 0.06 0.01 0.00 0.00 0.00 0.00 0.00 0.00 0.01 0.04 0.10 0.07 0.10 0.09 0.08 0.16 0.15 0.13 0.12 0.08 0.04
0.00 0.00 0.00 0.00 0.00 0.00 0.01 0.01 0.01 0.01 0.02 0.07 0.07 0.05 0.05 0.01 0.01 0.03 0.06 0.05 0.02 0.02 0.03 0.02 0.01 0.01 0.00 0.00 0.00 0.00 0.00 0.00 0.01 0.06 0.04 0.07 0.12 0.10 0.08 0.10 0.18 0.13 0.09 0.07
0.00 0.00 0.00 0.00 0.00 0.00 0.02 0.01 0.02 0.03 0.03 0.05 0.06 0.05 0.03 0.02 0.05 0.01 0.02 0.03 0.01 0.02 0.04 0.01 0.02 0.03 0.00 0.00 0.01 0.00 0.00 0.00 0.00 0.01 0.03 0.06 0.06 0.08 0.03 0.05 0.24 0.17 0.21 0.09
0.00 0.00 0.00 0.00 0.00 0.00 0.00 0.06 0.07 0.06 0.07 0.03 0.01 0.13 0.10 0.01 0.00 0.00 0.02 0.04 0.02 0.03 0.02 0.02 0.03 0.03 0.00 0.20 0.08 0.08 0.02 0.00 0.00 0.00 0.00 0.00 0.01 0.03 0.12 0.09 0.19 0.21 0.27 0.16
0.00 0.00 0.00 0.00 0.00 0.00 0.00 0.02 0.05 0.04 0.03 0.02 0.03 0.08 0.10 0.08 0.00 0.00 0.05 0.05 0.09 0.03 0.08 0.09 0.10 0.10 0.09 0.42 0.22 0.16 0.09 0.02 0.00 0.00 0.01 0.00 0.00 0.00 0.04 0.09 0.22 0.32 0.26 0.14
0.00 0.00 0.00 0.00 0.00 0.00 0.00 0.00 0.00 0.02 0.01 0.02 0.01 0.05 0.02 0.00 0.00 0.00 0.17 0.14 0.09 0.05 0.09 0.12 0.20 0.26 0.11 0.22 0.18 0.15 0.14 0.18 0.27 0.34 0.46 0.34 0.22 0.17 0.08 0.08 0.11 0.22 0.33 0.27
0.00 0.00 0.00 0.00 0.00 0.00 0.00 0.00 0.00 0.00 0.02 0.06 0.05 0.03 0.07 0.00 0.00 0.00 0.02 0.14 0.05 0.01 0.05 0.06 0.07 0.19 0.23 0.26 0.31 0.23 0.19 0.21 0.35 0.43 0.57 0.56 0.32 0.29 0.35 0.29 0.22 0.22 0.21 0.15
0.00 0.00 0.00 0.00 0.01 0.00 0.03 0.02 0.00 0.00 0.00 0.00 0.00 0.00 0.02 0.02 0.02 0.06 0.10 0.10 0.04 0.13 0.16 0.15 0.09 0.12 0.34 0.43 0.52 0.49 0.37 0.30 0.25 0.36 0.31 0.42 0.42 0.28 0.27 0.35 0.39 0.34 0.31 0.37
0.00 0.00 0.00 0.00 0.01 0.01 0.03 0.12 0.15 0.03 0.00 0.00 0.00 0.00 0.02 0.16 0.01 0.01 0.12 0.17 0.13 0.14 0.09 0.18 0.18 0.13 0.51 0.87 1.03 1.10 1.00 0.91 0.43 0.34 0.28 0.25 0.31 0.39 0.37 0.41 0.43 0.35 0.26 0.26
0.00 0.00 0.00 0.01 0.01 0.00 0.01 0.01 0.01 0.06 0.03 0.01 0.00 0.02 0.07 0.34 0.27 0.09 0.04 0.05 0.16 0.21 0.13 0.23 0.37 0.28 0.49 0.86 2.18 2.05 1.77 1.90 1.30 0.63 0.66 0.65 0.61 0.50 0.34 0.30 0.36 0.31 0.23 0.21
0.00 0.01 0.01 0.01 0.01 0.01 0.05 0.01 0.00 0.01 0.02 0.03 0.03 0.02 0.15 0.43 0.61 0.18 0.15 0.25 0.40 0.31 0.32 0.39 0.57 0.57 0.71 0.70 1.06 1.70 1.47 2.38 2.16 1.22 0.67 0.55 0.66 0.47 0.38 0.30 0.42 0.48 0.44 0.41
0.00 0.00 0.02 0.02 0.05 0.15 0.11 0.05 0.03 0.02 0.02 0.02 0.04 0.11 0.36 0.28 0.19 0.13 0.12 0.26 0.52 0.64 0.98 1.49 1.21 1.06 1.05 1.18 0.90 0.93 1.33 1.69 2.25 2.14 1.77 0.91 0.73 0.71 0.66 0.50 0.40 0.36 0.35 0.44
0.00 0.00 0.01 0.05 0.10 0.05 0.05 0.04 0.03 0.03 0.03 0.04 0.06 0.25 0.40 0.76 0.44 0.42 0.44 0.40 0.39 0.54 0.88 1.07 0.94 1.08 0.97 1.38 1.32 1.02 1.13 1.88 2.25 1.43 1.69 1.41 0.85 0.71 0.71 0.69 0.77 0.71 0.57 0.48
0.00 0.01 0.01 0.03 0.12 0.08 0.07 0.13 0.13 0.12 0.06 0.05 0.05 0.26 0.37 0.40 0.51 0.39 0.31 0.31 0.23 0.27 0.46 0.53 0.27 0.39 0.52 0.86 1.03 1.31 1.22 1.23 1.85 1.75 1.27 1.29 1.33 1.14 0.98 1.24 1.36 1.22 1.03 0.70
0.00 0.00 0.01 0.02 0.07 0.01 0.01 0.04 0.01 0.11 0.10 0.04 0.09 0.30 0.58 0.92 1.01 0.60 0.40 0.26 0.07 0.03 0.17 0.27 0.15 0.40 0.37 0.52 0.63 0.75 0.99 1.32 1.59 1.84 1.92 1.40 1.28 1.51 1.42 1.40 1.45 1.48 1.42 1.41
0.05 0.03 0.12 0.03 0.11 0.09 0.00 0.00 0.05 0.07 0.03 0.69 0.83 0.93 1.05 0.83 0.81 0.58 0.22 0.14 0.02 0.03 0.07 0.09 0.10 0.26 0.28 0.29 0.53 0.77 0.80 0.90 1.29 2.05 1.92 2.38 1.96 1.77 1.67 1.64 1.63 1.54 1.52 1.44
0.03 0.02 0.18 0.08 0.08 0.03 0.01 0.01 0.01 0.03 0.04 0.25 0.60 0.98 1.48 1.16 0.51 0.20 0.15 0.05 0.01 0.00 0.01 0.02 0.05 0.14 0.15 0.15 0.31 0.52 0.87 0.97 0.77 0.96 1.12 1.70 2.73 1.79 1.22 1.03 0.94 0.90 0.78 0.58
0.00 0.00 0.00 0.01 0.03 0.05 0.07 0.08 0.06 0.05 0.11 0.53 0.23 0.47 0.34 0.45 0.33 0.09 0.02 0.01 0.01 0.00 0.00 0.00 0.01 0.02 0.07 0.11 0.22 0.31 0.39 0.61 0.77 1.01 1.15 1.25 1.14 0.66 0.37 0.27 0.27 0.40 0.47 0.55
0.05 0.03 0.00 0.00 0.00 0.05 0.07 0.08 0.03 0.04 0.08 0.45 1.26 0.94 0.39 0.15 0.07 0.03 0.01 0.01 0.00 0.00 0.00 0.00 0.00 0.00 0.00 0.02 0.03 0.07 0.14 0.18 0.29 0.31 0.25 0.16 0.15 0.19 0.11 0.11 0.12 0.14 0.17 0.22
0.00 0.01 0.00 0.00 0.00 0.11 0.22 0.04 0.06 0.19 0.29 0.49 0.98 0.39 0.18 0.08 0.05 0.03 0.01 0.00 0.00 0.00 0.00 0.00 0.00 0.00 0.00 0.00 0.00 0.01 0.02 0.05 0.09 0.08 0.02 0.02 0.04 0.03 0.03 0.01 0.00 0.01 0.04 0.04